Regional Weather Roundup
Issued by NWS

Home | Current Version | Previous Version | Text Only | Print | Product List | Glossary Off
Versions: 1 2 3 4 5 6 7 8 9 10 11 12 13 14 15 16 17 18 19 20 21 22 23 24 25 26 27 28 29 30 31 32 33 34 35 36 37 38 39 40 41 42 43 44 45 46 47 48 49 50

000
ASUS43 KDTX 101410
RWRMI
MICHIGAN HOURLY REGIONAL WEATHER ROUNDUP
NATIONAL WEATHER SERVICE DETROIT/PONTIAC MI
900 AM EST SAT DEC 10 2016

NOTE: "FAIR" INDICATES FEW OR NO CLOUDS BELOW 12,000 FEET WITH NO
SIGNIFICANT WEATHER AND/OR OBSTRUCTION TO VISIBILITY.

MIZ047>049-052>055-059>063-066>070-074>076-081>083-101500-
SOUTHEAST LOWER MICHIGAN

CITY           SKY/WX    TMP DP  RH WIND       PRES   REMARKS
ADRIAN         CLEAR     20  15  81 W12       30.47S WCI   8
ALMA           LGT SNOW  21  18  86 SW6       30.41S WCI  14
ANN ARBOR      LGT SNOW  21  18  88 SW9       30.44S FOG     WCI  11
BAD AXE        MOCLDY    23  12  63 W7        30.38R WCI  14
CARO           PTCLDY    20  14  77 SW6       30.40S WCI  12
DETROIT CITY   CLOUDY    23  18  81 W9        30.45R WCI  13
DETROIT        MOCLDY    24  18  77 W10       30.47R WCI  14
FLINT          CLOUDY    22  15  75 SW9       30.42S WCI  12
GROSSE ILE     CLOUDY    23  18  81 W6        30.46S WCI  16
HILLSDALE      CLEAR     18  14  86 SW7       30.43S WCI   8
HOWELL         LGT SNOW  22  18  85 SW8       30.42S WCI  12

CITY           SKY/WX    TMP DP  RH WIND       PRES   REMARKS
JACKSON        LGT SNOW  19  15  84 SW12      30.43S WCI   7
LAMBERTVILLE   CLEAR     23  17  77 W6        30.49R WCI  15
LANSING        LGT SNOW  22  17  81 S7        30.42F WCI  13
LAPEER         NOT AVBL
MASON          LGT SNOW  21  19  91 CALM      30.42F
MONROE         FLURRIES  22  18  84 W8        30.47R WCI  13
MT. CLEMENS    MOCLDY    24  16  70 W12       30.41S WCI  13
PONTIAC        CLOUDY    22  16  78 W9        30.40S WCI  12
PORT HOPE        N/A     23  11  60 W8        30.35S WCI  14
PORT HURON     CLEAR     23  16  74 W3        30.42R
TRI CITIES     CLOUDY    20  15  81 SW7       30.42R WCI  11
MIDLAND        MOCLDY    20  13  73 SW6       30.40S WCI  12
TROY           CLOUDY    24  15  69 W10       30.45S WCI  14
SAGINAW HB     CLOUDY    23  14  68 SW8       30.41S WCI  14
$$
MIZ043>046-050>051-056>058-064>065-071>073-077>080-101500-
SOUTHWEST LOWER MICHIGAN

CITY           SKY/WX    TMP DP  RH WIND       PRES   REMARKS
BATTLE CREEK   LGT SNOW  21  18  88 SW10      30.43F FOG     WCI  10
BENTON HARBOR  LGT SNOW  25  18  74 W10       30.47R WCI  15
BIG RAPIDS     CLOUDY    19  16  88 SW5       30.37S WCI  13
COLDWATER      PTCLDY    19  14  82 SW6       30.45S WCI  10
FREMONT        CLOUDY    21  14  75 W8        30.41S WCI  11
HOLLAND        LGT SNOW  25  18  74 NW12      30.44R WCI  14
GRAND RAPIDS   SNOW      24  20  84 W8        30.42S VSB 1/2 WCI  15
IONIA          LGT SNOW  21  19  93 S5        30.40S WCI  15
KALAMAZOO      LGT SNOW  21  16  81 SW12      30.44F WCI   9
LUDINGTON      CLOUDY    22  14  70 W8        30.40S WCI  13
MARSHALL       FLURRIES  20  17  87 SW7       30.43S WCI  11
MOUNT PLEASANT PTCLDY    18  14  83 SW5       30.39S WCI  11
MUSKEGON       FLURRIES  24  16  71 W15G24    30.43S WCI  11
SOUTH HAVEN    LGT SNOW  26  21  82 W12       30.45R WCI  15
$$
MIZ016>042-101500-
NORTHERN LOWER MICHIGAN

CITY           SKY/WX    TMP DP  RH WIND       PRES   REMARKS
ALPENA         LGT SNOW  21  18  88 CALM      30.34S FOG
BEAVER ISLAND  CLOUDY    19  11  71 W14G21    30.34S WCI   6
BELLAIRE       LGT SNOW  21  19  90 W3        30.36S VSB 1
CADILLAC       CLOUDY    17  11  76 W7        30.32S WCI   8
CHARLEVOIX     LGT SNOW  22  14  73 W13G24    30.37S WCI   9
FRANKFORT      FLURRIES  22  16  77 NW6       30.38S WCI  15
GAYLORD        LGT SNOW  18  13  80 SW5       30.29S WCI  11
GRAYLING       LGT SNOW  19  15  86 SW7       30.32F WCI   9
HARBOR SPRINGS LGT SNOW  21  15  78 W13       30.33R WCI   8
HOUGHTON LAKE  PTCLDY    18  12  77 W8        30.34S WCI   8
MANISTEE       FLURRIES  21  11  65 W12       30.39S WCI   9
OSCODA         CLOUDY    22  13  66 MISG      30.36R
PELLSTON       CLOUDY    20  12  71 SW5       30.33S WCI  13
ROGERS CITY    CLOUDY    21  16  81 W6        30.34S WCI  13
TRAVERSE CITY  CLOUDY    20  16  84 VRB5      30.36S WCI  13
$$
MIZ007>008-015-101500-
EASTERN UPPER MICHIGAN

CITY           SKY/WX    TMP DP  RH WIND       PRES   REMARKS
KINROSS        PTCLDY    12   9  87 SW7       30.31R WCI   1
MACKINAC ISLAN CLOUDY    19  15  84 W10       30.31S WCI   7
NEWBERRY       CLEAR      8   4  86 SW12      30.28F WCI  -8
S. S. MARIE    LGT SNOW  14  11  87 S5        30.30S FOG     WCI   6
MUNISING         N/A      9   2  73 SW8       30.33S WCI  -3
$$
MIZ004>006-011>014-085-101500-
CENTRAL UPPER MICHIGAN

CITY           SKY/WX    TMP DP  RH WIND       PRES   REMARKS
MANISTIQUE     CLEAR      9   3  78 W10       30.34S WCI  -6
ESCANABA       CLEAR     10   2  69 W13       30.39S WCI  -5
MENOMINEE      CLEAR     13   3  64 NW6       30.44R WCI   4
SAWYER-GWINN   CLEAR      5   0  78 W10       30.31S WCI -10
$$
MIZ001>003-009>011-084-101500-
WESTERN UPPER MICHIGAN

CITY           SKY/WX    TMP DP  RH WIND       PRES   REMARKS
IRON MOUNTAIN  CLEAR      7  -3  64 W7        30.35S WCI  -5
HOUGHTON       LGT SNOW  15   8  73 NW15      30.32R WCI   0
COPPER HARBOR    N/A     19  14  81 N14G28    30.33S WCI   6
IRONWOOD       LGT SNOW   5   1  83 SW12      30.40F FOG     WCI -11
$$

ABBREVIATIONS USED IN REMARKS
   TC - TEMPERATURE IN CELSIUS
  WCI - WIND CHILL INDEX
   HX - HEAT INDEX
  VSB - VISIBILITY





USA.gov is the U.S. government's official web portal to all federal, state and local government web resources and services.